Weather History for KMGJ - December, 2013

Change the Weather History Date:

Wednesday, December 11, 2013

  Actual Average (KPOU) Record (KPOU)
Temperature  
Mean Temperature 24 °F 33 °F  
Max Temperature 30 °F 42 °F 63 °F (1966)
Min Temperature 19 °F 24 °F -5 °F (1958)
Degree Days  
Heating Degree Days 40 32  
Month to date heating degree days 335  
Since 1 July heating degree days 1613  
Cooling Degree Days 0 0  
Month to date cooling degree days 0  
Year to date cooling degree days 672  
Moisture  
Dew Point 16 °F    
Average Humidity 72    
Maximum Humidity 78    
Minimum Humidity 59    
Precipitation  
Precipitation 0.00 in 0.12 in 2.39 in (1952)
Month to date precipitation 1.33  
Year to date precipitation 44.33  
Sea Level Pressure  
Sea Level Pressure 30.20 in    
Wind  
Wind Speed 8 mph (SW)    
Max Wind Speed 12 mph    
Max Gust Speed 22 mph    
Visibility 10 miles    
Events      
T = Trace of Precipitation, MM = Missing Value Source: NWS Daily Summary

Daily Weather History Graph

Daily Weather History Graph

Search for Another Location

Airport or City:

Trip Planner

Search our weather history database for the weather conditions in past years. The results will help you decide how hot, cold, wet, or windy it might be!

Date:

Astronomy

Dec. 11, 2013 Rise Set
Actual Time 7:13 AM EST 4:27 PM EST
Civil Twilight 6:42 AM EST 4:58 PM EST
Nautical Twilight 6:07 AM EST 5:33 PM EST
Astronomical Twilight 5:33 AM EST 6:07 PM EST
Moon 1:02 PM EST (12/11) 1:28 AM EST (12/11)
Length of Visible Light 10h 16m
Length of Day
9h 13m
Waxing Gibbous, 71% of the Moon is Illuminated
Dec 11
Waxing Gibbous
Dec 17
Full
Dec 25
Last Quarter
Jan 1
New
Jan 7
First Quarter

Hourly Weather History & Observations

Time (EST) Temp. Windchill Dew Point Humidity Pressure Visibility Wind Dir Wind Speed Gust Speed Precip Events Conditions
12:54 AM 19.9 °F 10.1 °F 14.0 °F 78% 30.10 in 10.0 mi SW 8.1 mph - N/A   Clear
1:54 AM 19.9 °F 9.3 °F 14.0 °F 78% 30.12 in 10.0 mi SW 9.2 mph - N/A   Clear
2:54 AM 19.9 °F 9.3 °F 14.0 °F 78% 30.15 in 10.0 mi SW 9.2 mph - N/A   Clear
3:54 AM 19.0 °F 9.0 °F 12.9 °F 77% 30.17 in 10.0 mi SW 8.1 mph - N/A   Clear
4:54 AM 19.9 °F 7.9 °F 12.9 °F 74% 30.19 in 10.0 mi SW 11.5 mph - N/A   Clear
5:54 AM 19.9 °F 9.3 °F 12.9 °F 74% 30.21 in 10.0 mi SW 9.2 mph - N/A   Clear
6:54 AM 19.0 °F 8.2 °F 12.9 °F 77% 30.25 in 10.0 mi SW 9.2 mph - N/A   Clear
7:54 AM 19.0 °F 9.0 °F 12.9 °F 77% 30.26 in 10.0 mi SW 8.1 mph - N/A   Clear
8:54 AM 23.0 °F 13.9 °F 16.0 °F 74% 30.27 in 10.0 mi SW 8.1 mph - N/A   Clear
9:54 AM 26.1 °F 16.2 °F 17.1 °F 69% 30.27 in 10.0 mi WSW 10.4 mph 21.9 mph N/A   Clear
10:54 AM 27.0 °F 16.7 °F 18.0 °F 69% 30.26 in 10.0 mi WSW 11.5 mph - N/A   Clear
11:54 AM 28.0 °F 19.3 °F 19.0 °F 69% 30.24 in 10.0 mi WSW 9.2 mph - N/A   Clear
12:54 PM 28.9 °F 20.4 °F 17.1 °F 61% 30.20 in 10.0 mi WSW 9.2 mph - N/A   Clear
1:54 PM 30.0 °F 21.7 °F 19.0 °F 64% 30.20 in 10.0 mi West 9.2 mph - N/A   Clear
2:54 PM 30.0 °F 23.2 °F 19.0 °F 64% 30.19 in 10.0 mi SW 6.9 mph - N/A   Clear
3:54 PM 30.0 °F 22.4 °F 17.1 °F 59% 30.19 in 10.0 mi WSW 8.1 mph - N/A   Scattered Clouds
4:54 PM 26.1 °F 19.4 °F 18.0 °F 71% 30.19 in 10.0 mi SW 5.8 mph - N/A   Mostly Cloudy
5:54 PM 25.0 °F 19.3 °F 18.0 °F 75% 30.18 in 10.0 mi SW 4.6 mph - N/A   Overcast
6:54 PM 23.0 °F 15.8 °F 15.1 °F 72% 30.19 in 10.0 mi SSW 5.8 mph - N/A   Clear
7:54 PM 23.0 °F 17.0 °F 17.1 °F 78% 30.19 in 10.0 mi SW 4.6 mph - N/A   Clear
8:54 PM 21.0 °F 12.4 °F 15.1 °F 78% 30.20 in 10.0 mi SW 6.9 mph - N/A   Clear
9:54 PM 23.0 °F 13.9 °F 15.1 °F 72% 30.20 in 10.0 mi WSW 8.1 mph - N/A   Mostly Cloudy
10:54 PM 24.1 °F 16.0 °F 15.1 °F 69% 30.21 in 10.0 mi WSW 6.9 mph - N/A   Mostly Cloudy
11:54 PM 23.0 °F 14.7 °F 14.0 °F 68% 30.22 in 10.0 mi WSW 6.9 mph - N/A   Mostly Cloudy